| time (UTC) | temp F | wind direction | speed knots | gust knots | rain 1hr in | rain 24hr in | rain mn in | humidity % | barometer mb |
| 20260503184600 | 61 | 350 | 5.2 | 9.6 | 0.00 | 0.00 | 0.00 | 43 | 1019.6 |
| 20260503183113 | 61 | 327 | 4.3 | 12.2 | 0.00 | 0.00 | 0.00 | 41 | 1019.8 |
| 20260503181559 | 60 | 13 | 2.6 | 13.0 | 0.00 | 0.00 | 0.00 | 40 | 1019.8 |
| 20260503180059 | 60 | 38 | 2.6 | 8.7 | 0.00 | 0.00 | 0.00 | 42 | 1020.0 |
| 20260503174556 | 60 | 322 | 3.5 | 11.3 | 0.00 | 0.00 | 0.00 | 43 | 1020.1 |
| 20260503173115 | 59 | 298 | 4.3 | 13.0 | 0.00 | 0.00 | 0.00 | 41 | 1020.5 |
| 20260503171555 | 59 | 79 | 2.6 | 8.7 | 0.00 | 0.00 | 0.00 | 44 | 1020.7 |
| 20260503120119 | 41 | 23 | 1.7 | 7.0 | 0.00 | 0.00 | 0.00 | 76 | 1022.3 |
| 20260503100104 | 36 | 0 | 0.0 | 0.9 | 0.00 | 0.00 | 0.00 | 94 | 1021.4 |
| 20260503081555 | 36 | 0 | 0.0 | 0.9 | 0.00 | 0.00 | 0.00 | 94 | 1021.0 |
| 20260503071551 | 36 | 0 | 0.0 | 0.0 | 0.00 | 0.00 | 0.00 | 93 | 1020.8 |
| 20260503070109 | 36 | 0 | 0.0 | 0.9 | 0.00 | 0.00 | 0.00 | 93 | 1020.9 |
| 20260503054550 | 37 | 0 | 0.0 | 0.9 | 0.00 | 0.00 | 0.00 | 91 | 1021.0 |
| 20260503053053 | 37 | 0 | 0.0 | 1.7 | 0.00 | 0.00 | 0.00 | 90 | 1021.0 |
| 20260503051553 | 38 | 138 | 0.0 | 1.7 | 0.00 | 0.00 | 0.00 | 90 | 1021.0 |
| 20260503050054 | 38 | 0 | 0.0 | 1.7 | 0.00 | 0.00 | 0.00 | 89 | 1021.2 |
| 20260503044550 | 38 | 0 | 0.0 | 1.7 | 0.00 | 0.00 | 0.00 | 88 | 1021.1 |
| 20260503043050 | 38 | 0 | 0.0 | 0.9 | 0.00 | 0.00 | 0.00 | 87 | 1021.2 |
| 20260503041604 | 38 | 0 | 0.0 | 1.7 | 0.00 | 0.00 | 0.00 | 85 | 1021.2 |
| 20260503040056 | 39 | 0 | 0.0 | 1.7 | 0.00 | 0.00 | 0.00 | 85 | 1021.2 |
| 20260503034605 | 39 | 138 | 0.0 | 1.7 | 0.00 | 0.00 | 0.00 | 84 | 1021.2 |
| 20260503033055 | 40 | 0 | 0.0 | 2.6 | 0.00 | 0.00 | 0.00 | 83 | 1021.3 |
| 20260503031550 | 41 | 138 | 0.0 | 1.7 | 0.00 | 0.00 | 0.00 | 81 | 1021.3 |
| 20260503030054 | 41 | 0 | 0.0 | 1.7 | 0.00 | 0.00 | 0.00 | 79 | 1021.3 |
| 20260503024552 | 42 | 138 | 0.9 | 2.6 | 0.00 | 0.00 | 0.00 | 80 | 1021.1 |
| 20260503023054 | 42 | 0 | 0.9 | 2.6 | 0.00 | 0.00 | 0.00 | 79 | 1021.1 |
| 20260503021553 | 43 | 0 | 0.0 | 1.7 | 0.00 | 0.00 | 0.00 | 77 | 1021.0 |
| 20260503020052 | 43 | 138 | 0.0 | 1.7 | 0.00 | 0.00 | 0.00 | 75 | 1020.6 |
| 20260503014558 | 44 | 138 | 0.0 | 1.7 | 0.00 | 0.00 | 0.00 | 74 | 1020.3 |
| 20260503013054 | 45 | 138 | 0.9 | 1.7 | 0.00 | 0.00 | 0.00 | 72 | 1020.2 |
| 20260503011551 | 46 | 138 | 0.9 | 1.7 | 0.00 | 0.00 | 0.00 | 68 | 1019.9 |
| 20260503010049 | 48 | 138 | 0.0 | 1.7 | 0.00 | 0.00 | 0.00 | 63 | 1019.7 |
| 20260503004550 | 50 | 0 | 0.0 | 2.6 | 0.00 | 0.00 | 0.00 | 62 | 1019.5 |
| 20260503003106 | 51 | 0 | 0.9 | 4.3 | 0.00 | 0.00 | 0.00 | 55 | 1019.5 |
| 20260503001549 | 51 | 128 | 1.7 | 6.1 | 0.00 | 0.00 | 0.00 | 54 | 1019.3 |
| 20260503000054 | 52 | 122 | 1.7 | 7.8 | 0.00 | 0.00 | 0.00 | 51 | 1018.9 |
| 20260502234554 | 53 | 130 | 2.6 | 7.0 | 0.00 | 0.00 | 0.00 | 49 | 1019.0 |
| 20260502233049 | 54 | 130 | 2.6 | 8.7 | 0.00 | 0.00 | 0.00 | 49 | 1018.8 |
| 20260502231605 | 54 | 109 | 4.3 | 7.8 | 0.00 | 0.00 | 0.00 | 45 | 1018.9 |
| 20260502230058 | 54 | 127 | 3.5 | 8.7 | 0.00 | 0.00 | 0.00 | 47 | 1018.9 |
| 20260502224555 | 54 | 124 | 3.5 | 10.4 | 0.00 | 0.00 | 0.00 | 48 | 1018.8 |
| 20260502223049 | 54 | 198 | 4.3 | 9.6 | 0.00 | 0.00 | 0.00 | 48 | 1018.9 |
| 20260502221559 | 55 | 196 | 6.1 | 13.0 | 0.00 | 0.00 | 0.00 | 46 | 1018.9 |
| 20260502214555 | 55 | 117 | 3.5 | 13.0 | 0.00 | 0.00 | 0.00 | 45 | 1018.7 |
| 20260502213052 | 54 | 119 | 3.5 | 11.3 | 0.00 | 0.00 | 0.00 | 47 | 1018.6 |
| 20260502211555 | 55 | 136 | 1.7 | 7.8 | 0.00 | 0.00 | 0.00 | 47 | 1018.5 |
| 20260502210104 | 55 | 28 | 3.5 | 11.3 | 0.00 | 0.00 | 0.00 | 48 | 1018.5 |
| 20260502204552 | 54 | 154 | 1.7 | 7.0 | 0.00 | 0.00 | 0.00 | 51 | 1018.6 |
| 20260502203053 | 54 | 142 | 2.6 | 9.6 | 0.00 | 0.00 | 0.00 | 52 | 1018.6 |
| 20260502201552 | 54 | 120 | 2.6 | 9.6 | 0.00 | 0.00 | 0.00 | 50 | 1018.7 |
| 20260502200101 | 54 | 138 | 2.6 | 7.8 | 0.00 | 0.00 | 0.00 | 50 | 1018.9 |
| 20260502194549 | 54 | 186 | 1.7 | 7.0 | 0.00 | 0.00 | 0.00 | 52 | 1019.0 |
| 20260502193050 | 54 | 141 | 1.7 | 9.6 | 0.00 | 0.00 | 0.00 | 54 | 1019.0 |
| 20260502191555 | 54 | 115 | 2.6 | 13.0 | 0.00 | 0.00 | 0.00 | 54 | 1019.2 |
| 20260502190106 | 54 | 131 | 3.5 | 10.4 | 0.00 | 0.00 | 0.00 | 51 | 1019.2 |